Buffalo, NY

7:16 AM EDT on October 14, 2019 (GMT -0400)
Buffalo Niagara International

Weather History for KBUF - August, 2019

Change the Weather History Date:

Sunday, August 18, 2019

  Actual Average Record
Temperature  
Mean Temperature 76 °F 70 °F  
Max Temperature 83 °F 78 °F 90 °F (1935)
Min Temperature 68 °F 61 °F 46 °F (1963)
Degree Days  
Heating Degree Days 0 1  
Month to date heating degree days 0 3  
Since 1 June heating degree days 62 76  
Since 1 July heating degree days 0 12  
Cooling Degree Days 11 5  
Month to date cooling degree days 124 104  
Year to date cooling degree days 492 430  
Since 1 June cooling degree days 484 404  
Growing Degree Days 25 (Base 50)    
Moisture  
Dew Point 66 °F    
Average Humidity 73    
Maximum Humidity 87    
Minimum Humidity 58    
Precipitation  
Precipitation 0.31 in 0.10 in 1.16 in (1900)
Month to date precipitation 2.45 1.92  
Year to date precipitation 27.20 23.82  
Snow  
Snow 0.00 in 0.00 in 0.00 in ()
Month to date snowfall 0.0 0.0  
Since 1 June snowfall 0.0 0.0  
Since 1 July snowfall 0.0 0.0  
Snow Depth 0.00 in    
Sea Level Pressure  
Sea Level Pressure 29.93 in    
Wind  
Wind Speed 9 mph (SSW)    
Max Wind Speed 20 mph    
Max Gust Speed 26 mph    
Visibility 9 miles    
Events Rain , Thunderstorm    
T = Trace of Precipitation, MM = Missing Value Source: NWS Daily Summary

Daily Weather History Graph

Daily Weather History Graph

Search for Another Location

Airport or City:

Astronomy

Aug. 18, 2019 Rise Set
Actual Time 6:23 AM EDT 8:12 PM EDT
Civil Twilight 5:53 AM EDT 8:43 PM EDT
Nautical Twilight 5:16 AM EDT 9:19 PM EDT
Astronomical Twilight 4:36 AM EDT 9:59 PM EDT
Moon 10:02 PM EDT (8/18) 9:10 AM EDT (8/18)
Length of Visible Light 14h 49m
Length of Day
13h 48m
Waning Gibbous, 91% of the Moon is Illuminated
Aug 18
Waning Gibbous
Aug 23
Last Quarter
Aug 30
New
Sep 5
First Quarter
Sep 14
Full

Hourly Weather History & Observations

Time (EDT) Temp. Heat Index Dew Point Humidity Pressure Visibility Wind Dir Wind Speed Gust Speed Precip Events Conditions
12:54 AM 70.0 °F - 64.9 °F 84% 29.96 in 10.0 mi SSW 5.8 mph - N/A   Mostly Cloudy
1:54 AM 69.1 °F - 64.9 °F 87% 29.96 in 10.0 mi Calm Calm - N/A   Mostly Cloudy
2:54 AM 68.0 °F - 64.9 °F 90% 29.96 in 10.0 mi East 3.5 mph - N/A   Mostly Cloudy
3:54 AM 68.0 °F - 64.9 °F 90% 29.96 in 10.0 mi East 3.5 mph - 0.00 in Rain Light Rain
4:54 AM 68.0 °F - 64.9 °F 90% 29.94 in 10.0 mi ESE 5.8 mph - 0.00 in   Overcast
5:54 AM 68.0 °F - 64.9 °F 90% 29.95 in 9.0 mi Calm Calm - 0.04 in Rain Light Rain
6:45 AM 68.0 °F - 64.9 °F 90% 30.01 in 9.0 mi West 8.1 mph - 0.00 in Rain , Thunderstorm Light Thunderstorms and Rain
6:54 AM 69.1 °F - 66.0 °F 90% 30.00 in 4.0 mi SW 5.8 mph - 0.02 in Rain , Thunderstorm Thunderstorms and Rain
7:09 AM 69.1 °F - 66.0 °F 90% 30.01 in 2.0 mi SW 5.8 mph - 0.07 in Rain , Thunderstorm Heavy Thunderstorms and Rain
7:35 AM 68.0 °F - 66.0 °F 93% 29.98 in 4.0 mi ESE 10.4 mph - 0.22 in Rain Light Rain
7:54 AM 68.0 °F - 66.0 °F 93% 29.94 in 4.0 mi ESE 9.2 mph - 0.25 in Rain Light Rain
8:54 AM 70.0 °F - 66.0 °F 87% 29.95 in 10.0 mi SSE 11.5 mph - 0.00 in   Mostly Cloudy
9:54 AM 73.9 °F - 66.9 °F 79% 29.94 in 10.0 mi South 10.4 mph - N/A   Mostly Cloudy
10:54 AM 77.0 °F - 68.0 °F 74% 29.93 in 10.0 mi South 10.4 mph - N/A   Mostly Cloudy
11:54 AM 77.0 °F - 64.9 °F 66% 29.95 in 10.0 mi SSW 12.7 mph - N/A   Mostly Cloudy
12:54 PM 77.0 °F - 66.0 °F 69% 29.92 in 10.0 mi SSW 11.5 mph - N/A   Mostly Cloudy
1:54 PM 79.0 °F - 66.0 °F 64% 29.93 in 10.0 mi WSW 15.0 mph 23.0 mph N/A   Scattered Clouds
2:54 PM 82.9 °F 85.4 °F 66.9 °F 58% 29.93 in 10.0 mi WSW 12.7 mph 20.7 mph N/A   Scattered Clouds
3:54 PM 82.9 °F 85.4 °F 66.9 °F 58% 29.91 in 10.0 mi WSW 12.7 mph 20.7 mph N/A   Partly Cloudy
4:54 PM 82.0 °F 84.5 °F 66.9 °F 60% 29.91 in 10.0 mi WSW 10.4 mph - N/A   Mostly Cloudy
5:54 PM 81.0 °F 83.8 °F 68.0 °F 65% 29.91 in 10.0 mi WSW 16.1 mph 26.5 mph N/A   Mostly Cloudy
6:54 PM 78.1 °F - 66.0 °F 66% 29.86 in 10.0 mi SW 11.5 mph - N/A   Mostly Cloudy
7:54 PM 78.1 °F - 64.9 °F 64% 29.88 in 10.0 mi WSW 6.9 mph - N/A   Mostly Cloudy
8:54 PM 75.9 °F - 64.9 °F 69% 29.87 in 10.0 mi South 8.1 mph - N/A   Mostly Cloudy
9:54 PM 73.9 °F - 64.9 °F 73% 29.85 in 10.0 mi South 8.1 mph - N/A   Scattered Clouds
10:54 PM 73.0 °F - 64.9 °F 76% 29.85 in 10.0 mi South 5.8 mph - N/A   Mostly Cloudy
11:54 PM 73.9 °F - 64.9 °F 73% 29.87 in 10.0 mi South 6.9 mph - N/A   Mostly Cloudy